Pellston, MI

8:02 AM EST on February 23, 2018 (GMT -0500)
Pellston Regional Airport Of Emmet County

Weather History for KPLN - February, 2013

Change the Weather History Date:

Monday, February 4, 2013

  Actual Average Record
Temperature  
Mean Temperature 1 °F -  
Max Temperature 15 °F 24 °F 48 °F (1991)
Min Temperature -13 °F 4 °F -26 °F (1970)
Degree Days  
Heating Degree Days 64    
Moisture  
Dew Point -7 °F    
Average Humidity 76    
Maximum Humidity 100    
Minimum Humidity 49    
Precipitation  
Precipitation 0.00 in - - ()
Sea Level Pressure  
Sea Level Pressure 29.97 in    
Wind  
Wind Speed 1 mph (NW)    
Max Wind Speed 10 mph    
Max Gust Speed -    
Visibility 8 miles    
Events Snow    
Averages and records for this station are not official NWS values.
T = Trace of Precipitation, MM = Missing Value Source: NWS Daily Summary

Daily Weather History Graph

Daily Weather History Graph

Search for Another Location

Airport or City:

Trip Planner

Search our weather history database for the weather conditions in past years. The results will help you decide how hot, cold, wet, or windy it might be!

Date:

Astronomy

Feb. 04, 2013 Rise Set
Actual Time 7:56 AM EST 5:50 PM EST
Civil Twilight 7:25 AM EST 6:21 PM EST
Nautical Twilight 6:49 AM EST 6:57 PM EST
Astronomical Twilight 6:15 AM EST 7:31 PM EST
Moon 2:34 AM EST (2/4) 12:09 PM EST (2/4)
Length of Visible Light 10h 56m
Length of Day
9h 54m
Last Quarter, 37% of the Moon is Illuminated
Feb 4
Last Quarter
Feb 10
New
Feb 17
First Quarter
Feb 25
Full
Mar 4
Last Quarter

Hourly Weather History & Observations

Time (EST) Temp. Windchill Dew Point Humidity Pressure Visibility Wind Dir Wind Speed Gust Speed Precip Events Conditions
12:54 AM -8.0 °F - -11.9 °F 83% 29.98 in 10.0 mi Calm Calm - N/A   Clear
1:54 AM -9.9 °F - -16.1 °F 74% 29.98 in 10.0 mi Calm Calm - N/A   Scattered Clouds
2:08 AM -9.4 °F - -14.8 °F 77% 29.92 in 10.0 mi Calm Calm - N/A   Mostly Cloudy
2:15 AM -9.4 °F - -14.8 °F 77% 29.92 in 10.0 mi Calm Calm - N/A   Mostly Cloudy
2:54 AM -9.0 °F - -14.1 °F 79% 29.99 in 5.0 mi Calm Calm - 0.00 in Snow Light Snow
3:07 AM -7.6 °F - -13.0 °F 77% 29.93 in 2.5 mi Calm Calm - 0.00 in Snow Light Snow
3:33 AM -4.0 °F - -9.4 °F 78% 29.93 in 4.0 mi Calm Calm - 0.00 in Snow Light Snow
3:54 AM -2.9 °F - -8.0 °F 79% 29.97 in 8.0 mi Calm Calm - 0.00 in   Overcast
5:54 AM 1.9 °F -7.6 °F -2.9 °F 80% 29.99 in 9.0 mi NNE 4.6 mph - N/A   Scattered Clouds
6:54 AM -6.0 °F - -9.9 °F 83% 30.00 in 10.0 mi Calm Calm - N/A   Clear
7:54 AM -11.9 °F -23.8 °F -16.1 °F 82% 30.01 in 3.0 mi NW 4.6 mph - N/A   Clear
8:47 AM -13.0 °F - -13.0 °F 100% 29.95 in 1.8 mi Calm Calm - N/A   Clear
8:54 AM -13.0 °F - -15.0 °F 91% 30.02 in 1.2 mi Calm Calm - N/A   Clear
8:59 AM -13.0 °F - -16.6 °F 84% 29.96 in 3.0 mi Calm Calm - N/A   Clear
9:54 AM -5.1 °F - -8.0 °F 87% 30.02 in 10.0 mi Calm Calm - N/A   Clear
10:54 AM 5.0 °F - 1.0 °F 84% 30.01 in 10.0 mi Calm Calm - N/A   Clear
11:54 AM 12.0 °F - 3.9 °F 70% 30.00 in 10.0 mi Calm Calm - N/A   Clear
12:54 PM 14.0 °F 2.0 °F 1.0 °F 56% 29.99 in 10.0 mi NW 9.2 mph - N/A   Clear
1:54 PM 14.0 °F 1.2 °F -0.0 °F 54% 29.98 in 10.0 mi NW 10.4 mph - N/A   Mostly Cloudy
2:54 PM 15.1 °F 4.2 °F -0.9 °F 49% 29.97 in 10.0 mi NW 8.1 mph - 0.00 in   Mostly Cloudy
3:54 PM 14.0 °F 3.9 °F -0.9 °F 52% 29.96 in 10.0 mi NW 6.9 mph - N/A   Mostly Cloudy
4:54 PM 12.9 °F 6.9 °F -0.0 °F 56% 29.96 in 10.0 mi West 3.5 mph - N/A   Scattered Clouds
5:54 PM 12.9 °F - 1.0 °F 59% 29.95 in 10.0 mi Calm Calm - N/A   Overcast
6:54 PM 9.0 °F - 3.0 °F 77% 29.96 in 10.0 mi Calm Calm - N/A   Overcast
7:54 PM 7.0 °F - 1.9 °F 80% 29.98 in 10.0 mi Calm Calm - N/A   Overcast
8:54 PM 6.1 °F - 1.0 °F 80% 29.99 in 10.0 mi Calm Calm - N/A   Overcast
9:54 PM 5.0 °F - -0.0 °F 80% 29.98 in 10.0 mi Calm Calm - N/A   Mostly Cloudy
10:54 PM -4.0 °F - -7.1 °F 87% 29.96 in 10.0 mi Calm Calm - N/A   Scattered Clouds
11:54 PM -5.1 °F - -9.0 °F 83% 29.95 in 10.0 mi Calm Calm - N/A   Mostly Cloudy